KB5SJ Weather Reports


time (UTC)temp
F
wind
direction
speed
knots
gust
knots
rain 1hr
in
rain 24hr
in
rain mn
in
humidity
%
barometer
mb
20260506084515 76 180 0.9 4.3 0.00 0.00 0.00 97 1007.4
20260506083516 76 180 0.9 3.5 0.00 0.00 0.00 97 1007.4
20260506082516 76 180 0.9 3.5 0.00 0.00 0.00 96 1007.6
20260506081516 76 203 0.9 4.3 0.00 0.00 0.00 96 1007.7
20260506080515 76 180 1.7 5.2 0.00 0.00 0.00 96 1007.8
20260506073515 77 180 0.9 2.6 0.00 0.00 0.00 95 1008.2
20260506072515 77 225 0.9 4.3 0.00 0.00 0.00 95 1008.3
20260506071536 77 180 0.9 3.5 0.00 0.00 0.00 95 1008.3
20260506070517 77 203 0.9 2.6 0.00 0.00 0.00 95 1008.4
20260506062516 77 225 1.7 4.3 0.00 0.00 0.00 95 1008.3
20260506061517 77 225 0.9 2.6 0.00 0.00 0.00 95 1008.4
20260506060517 77 225 0.9 1.7 0.00 0.00 0.00 95 1008.4
20260506050517 77 248 0.9 1.7 0.00 0.00 0.00 94 1008.5
20260506044517 78 203 0.9 2.6 0.00 0.00 0.00 93 1008.4
20260506043516 78 203 0.9 2.6 0.00 0.00 0.00 93 1008.4
20260506042517 78 180 0.9 2.6 0.00 0.00 0.00 93 1008.5
20260506041537 78 203 0.9 6.1 0.00 0.00 0.00 93 1008.4
20260506040517 78 180 0.9 4.3 0.00 0.00 0.00 93 1008.2
20260506035557 78 203 1.7 4.3 0.00 0.00 0.00 93 1008.3
20260506034516 78 180 1.7 4.3 0.00 0.00 0.00 93 1008.2
20260506033517 78 203 0.9 2.6 0.00 0.00 0.00 93 1008.1
20260506032516 78 180 0.9 2.6 0.00 0.00 0.00 93 1008.2
20260506031517 78 0.0 1.7 0.00 0.00 0.00 93 1008.0
20260506030536 78 203 0.9 2.6 0.00 0.00 0.00 93 1007.9
20260506025516 78 0.0 3.5 0.00 0.00 0.00 92 1007.8
20260506024517 78 180 0.9 4.3 0.00 0.00 0.00 92 1007.6
20260506023516 78 225 0.9 5.2 0.00 0.00 0.00 92 1007.4
20260506022517 78 203 0.9 3.5 0.00 0.00 0.00 92 1007.2
20260506021517 78 203 0.9 3.5 0.00 0.00 0.00 91 1007.1
20260506020517 79 203 0.9 3.5 0.00 0.00 0.00 91 1007.0
20260506015516 79 203 0.9 3.5 0.00 0.00 0.00 91 1006.8
20260506014536 79 203 0.9 2.6 0.00 0.00 0.00 91 1006.8
20260506013516 79 203 0.9 3.5 0.00 0.00 0.00 90 1006.6
20260506012517 79 203 0.9 1.7 0.00 0.00 0.00 90 1006.5
20260506011516 79 203 0.9 4.3 0.00 0.00 0.00 90 1006.4
20260506010516 80 180 1.7 4.3 0.00 0.00 0.00 90 1006.4
20260506005517 80 203 0.9 2.6 0.00 0.00 0.00 89 1006.3
20260506004516 80 225 0.9 4.3 0.00 0.00 0.00 89 1006.1
20260506003517 80 180 1.7 6.1 0.00 0.00 0.00 89 1006.2
20260506002516 80 203 0.9 4.3 0.00 0.00 0.00 89 1006.0
20260506001517 80 225 0.9 5.2 0.00 0.00 0.00 89 1006.0
20260506000516 81 180 1.7 6.1 0.00 0.00 0.00 88 1006.0
20260505235557 81 203 1.7 5.2 0.00 0.00 0.00 88 1006.0
20260505234517 82 203 1.7 4.3 0.00 0.00 0.00 88 1005.8
20260505233517 82 203 0.9 3.5 0.00 0.00 0.00 87 1005.8
20260505232516 82 225 0.9 3.5 0.00 0.00 0.00 86 1006.0
20260505231516 82 203 1.7 4.3 0.00 0.00 0.00 86 1005.9
20260505230516 83 203 0.9 2.6 0.00 0.00 0.00 85 1005.7
20260505225516 83 225 1.7 4.3 0.00 0.00 0.00 85 1005.6
20260505224516 83 203 1.7 5.2 0.00 0.00 0.00 85 1005.8
20260505223516 84 225 1.7 4.3 0.00 0.00 0.00 85 1005.6
20260505222516 84 248 0.9 3.5 0.00 0.00 0.00 84 1005.7
20260505221516 84 203 2.6 9.6 0.00 0.00 0.00 84 1005.7
20260505220516 84 203 1.7 4.3 0.00 0.00 0.00 84 1005.7
20260505215536 83 248 0.9 3.5 0.00 0.00 0.00 84 1006.1
20260505214536 83 248 1.7 5.2 0.00 0.00 0.00 84 1006.2
20260505213516 83 225 0.9 2.6 0.00 0.00 0.00 84 1006.2
20260505212516 83 248 0.9 3.5 0.00 0.00 0.00 85 1006.3
20260505211516 83 225 1.7 4.3 0.00 0.00 0.00 84 1006.4
20260505210516 83 225 1.7 6.1 0.00 0.00 0.00 84 1006.6
20260505205516 83 203 1.7 7.0 0.00 0.00 0.00 84 1006.6
20260505204516 84 248 1.7 3.5 0.00 0.00 0.00 83 1006.8
20260505203537 83 225 0.9 4.3 0.00 0.00 0.00 85 1006.9
20260505202516 83 225 1.7 7.0 0.00 0.00 0.00 84 1007.0
20260505201516 82 203 1.7 4.3 0.00 0.00 0.00 86 1007.2
20260505200516 82 180 1.7 5.2 0.00 0.00 0.00 85 1007.3
20260505195537 83 203 1.7 3.5 0.00 0.00 0.00 85 1007.4
20260505194516 83 248 1.7 2.6 0.00 0.00 0.00 85 1007.7
20260505193516 83 203 1.7 3.5 0.00 0.00 0.00 84 1007.6
20260505192516 83 203 0.9 2.6 0.00 0.00 0.00 85 1007.7
20260505191536 83 225 1.7 4.3 0.00 0.00 0.00 86 1007.6
20260505190516 82 203 1.7 5.2 0.00 0.00 0.00 86 1007.9
20260505185516 82 225 0.9 5.2 0.00 0.00 0.00 86 1007.8
20260505184516 82 248 0.9 4.3 0.00 0.00 0.00 86 1008.1
20260505183516 81 203 0.9 2.6 0.00 0.00 0.00 87 1008.0
20260505182536 81 225 1.7 2.6 0.00 0.00 0.00 88 1008.1
20260505181516 80 225 1.7 5.2 0.00 0.00 0.00 89 1008.2
20260505180536 80 248 0.9 2.6 0.00 0.00 0.00 90 1008.2
20260505175556 80 248 0.9 3.5 0.00 0.00 0.00 90 1008.3
20260505174516 79 225 0.9 5.2 0.00 0.00 0.00 90 1008.4
20260505173517 79 225 2.6 7.8 0.00 0.00 0.00 89 1008.4
20260505172516 79 0.0 1.7 0.00 0.00 0.00 89 1008.5
20260505171516 79 270 0.9 1.7 0.00 0.00 0.00 89 1008.5
20260505170516 79 180 1.7 4.3 0.00 0.00 0.00 89 1008.7
20260505165516 79 0.0 1.7 0.00 0.00 0.00 90 1008.7
20260505164516 79 248 0.9 4.3 0.00 0.00 0.00 89 1008.8
20260505163536 79 225 0.9 2.6 0.00 0.00 0.00 89 1008.7
20260505162516 78 225 0.9 2.6 0.00 0.00 0.00 90 1008.8
20260505161516 78 270 0.9 3.5 0.00 0.00 0.00 90 1008.7
20260505160536 78 225 0.9 2.6 0.00 0.00 0.00 90 1008.7
20260505152516 77 248 0.9 1.7 0.00 0.00 0.00 91 1008.6
20260505151516 77 203 0.9 1.7 0.00 0.00 0.00 91 1008.6
20260505150516 77 203 1.7 4.3 0.00 0.00 0.00 91 1008.6
20260505140556 76 180 1.7 4.3 0.00 0.00 0.00 92 1008.2
20260505124516 74 203 1.7 4.3 0.00 0.00 0.00 93 1007.6
20260505123536 74 248 0.9 3.5 0.00 0.00 0.00 94 1008.3
20260505122516 73 0.0 2.6 0.00 0.00 0.00 94 1008.3
20260505121516 73 0.0 0.9 0.00 0.00 0.00 94 1007.9
20260505120516 73 0.0 0.9 0.00 0.00 0.00 94 1007.6
20260505115516 73 0.0 2.6 0.00 0.00 0.00 94 1007.5
20260505114535 73 0.0 0.0 0.00 0.00 0.00 94 1008.0
20260505113516 73 0.0 0.0 0.00 0.00 0.00 94 1007.7
20260505112516 72 225 0.9 3.5 0.00 0.00 0.00 94 1007.6
20260505111515 72 0.0 0.0 0.00 0.00 0.00 94 1007.7
20260505110536 72 0.0 0.0 0.00 0.00 0.00 94 1007.6
20260505101516 71 0.0 0.9 0.00 0.00 0.00 95 1007.7
20260505100535 70 0.0 0.0 0.00 0.00 0.00 95 1007.7
20260505095535 70 0.0 0.0 0.00 0.00 0.00 95 1007.8
20260505094535 70 0.0 0.0 0.00 0.00 0.00 95 1007.8
20260505093536 70 0.0 0.0 0.00 0.00 0.00 94 1007.9
20260505092516 70 0.0 0.0 0.00 0.00 0.00 94 1008.0
20260505091516 70 0.0 0.0 0.00 0.00 0.00 94 1007.9
20260505090556 70 0.0 0.0 0.00 0.00 0.00 94 1008.0
20260505085515 70 0.0 0.0 0.00 0.00 0.00 94 1008.0